Location: Izdebno
(52.6670°N, 16.2170°E)
Time: 17:50:09
(UTC+02:00)

Transit 4A - Pass Details

Date: 26 February 2024
Orbit: 871 x 972 km, 66.8° (Epoch: 21 April)

Event Time Altitude Azimuth Distance (km) Brightness Sun altitude
Rises 01:30:13 0° 211° (SSW) 3,599 - -43.2°
Reaches altitude 10° 01:32:47 10° 210° (SSW) 2,644 - -43.1°
Maximum altitude 01:38:55 77° 126° (SE) 948 - -42.6°
Exits shadow 01:42:57 22° 43° (NE) 1,876 9.9 -42.3°
Drops below altitude 10° 01:44:55 10° 41° (NE) 2,588 10.8 -42.1°
Sets 01:47:24 0° 40° (NE) 3,518 11.8 -41.9°
